Home > Weather > Kunduz > Past weeks

Flag for Afghanistan Weather for the Past 2 Weeks in Kunduz, Afghanistan

Now
77 °F

Clear.


Feels Like: 78 °F
Forecast: 67 / 86 °F
Wind: 12 mph from Southwest

Location: Termez Airport

Current Time: May 2, 2016 at 2:11:39 AM

Latest Report: May 2, 2016 at 12:30 AM


Visibility: 10 mi

Pressure: 29.77 "Hg

Humidity: 44%

Dew Point: 54 °F

Location of KunduzLocation

Historic Weather in Kunduz — Graph

°F

Kunduz Temperature Yesterday

Maximum temperature yesterday: 95 °F (at 1:30 PM)
Minimum temperature yesterday: 63 °F (at 5:30 AM)
Average temperature yesterday: 83 °F

High & Low Weather Summary for the Past Weeks

 TemperatureHumidityPressure
High100 °F (Apr 30, 3:00 PM)100% (Apr 17, 12:30 AM)30.21 "Hg (Apr 17, 12:30 AM)
Low52 °F (Apr 22, 5:00 AM)9% (Apr 29, 3:00 PM)29.71 "Hg (Apr 30, 5:30 PM)
Average73 °F45%29.95 "Hg
* Reported Apr 17 12:30 AM — May 2 12:30 AM, Kunduz, Weather by CustomWeather, © 2016

Note: Actual official high and low records may vary slightly from our data, if they occured in-between our weather recording intervals... More about our weather records

Advertising

Kunduz Weather History for the Previous 24 Hours

Scroll right to see more
 ConditionsComfort  
Time TempWeatherWind HumidityBarometerVisibility
12:30 AM
Mon, May 2
77 °FClear.12 mph44%29.77 "Hg10 mi
11:30 PM
Sun, May 1
77 °FClear.10 mph44%29.77 "Hg10 mi
11:00 PM77 °FDuststorm.12 mph44%29.80 "Hg4 mi
10:30 PM79 °FDuststorm.16 mph39%29.80 "Hg4 mi
10:00 PM81 °FDuststorm.15 mph37%29.77 "Hg4 mi
9:30 PM81 °FDuststorm.18 mph37%29.77 "Hg3 mi
8:30 PM82 °FHaze.15 mph37%29.77 "Hg3 mi
8:00 PM81 °FClear.9 mph34%29.74 "Hg10 mi
7:30 PM81 °FClear.8 mph34%29.74 "Hg10 mi
7:00 PM82 °FClear.9 mph32%29.74 "Hg10 mi
6:30 PM86 °FSunny.10 mph31%29.71 "Hg10 mi
6:00 PM88 °FSunny.10 mph29%29.71 "Hg10 mi
5:30 PM90 °FSunny.12 mph26%29.71 "Hg10 mi
5:00 PM91 °FSunny.14 mph24%29.71 "Hg10 mi
4:30 PM93 °FSunny.14 mph23%29.71 "Hg10 mi
4:00 PM93 °FDuststorm.13 mph21%29.71 "Hg4 mi
3:30 PM93 °FDuststorm.13 mph20%29.71 "Hg4 mi
3:00 PM93 °FDuststorm.15 mph20%29.74 "Hg4 mi
2:30 PM95 °FDuststorm.15 mph19%29.74 "Hg4 mi
2:00 PM93 °FClear.17 mph21%29.74 "Hg4 mi
1:30 PM95 °FClear.14 mph18%29.74 "Hg5 mi
1:00 PM93 °FClear.14 mph16%29.77 "Hg4 mi
12:30 PM93 °FClear.14 mph19%29.77 "Hg4 mi
12:00 PM91 °FSunny.15 mph21%29.77 "Hg10 mi
11:00 AM90 °FPassing clouds.12 mph21%29.80 "HgN/A
10:30 AM86 °FClear.13 mph22%29.80 "Hg4 mi
10:00 AM86 °FClear.13 mph24%29.80 "Hg4 mi
9:30 AM84 °FPassing clouds.13 mph25%29.80 "HgN/A
8:30 AM82 °FPassing clouds.6 mph30%29.77 "HgN/A
8:00 AM81 °FPassing clouds.3 mph30%29.77 "HgN/A
7:30 AM77 °FSunny.6 mph36%29.77 "Hg10 mi
6:30 AM68 °FSunny.7 mph56%29.74 "Hg10 mi
5:30 AM63 °FSunny.7 mph68%29.74 "Hg10 mi
4:30 AM66 °FClear.6 mph56%29.71 "Hg10 mi
3:30 AM68 °FClear.12 mph49%29.71 "Hg10 mi
2:30 AM68 °FClear.10 mph49%29.71 "Hg10 mi
Weather by CustomWeather, © 2016

See weather overviewHow to use our weather pages